| time (UTC) | temp C | wind direction | speed KPH | gust KPH | rain 1hr cm | rain 24hr cm | rain mn cm | humidity % | barometer mb |
| 20260901053331 | 14 | 154 | 3.2 | 8.0 | 0.00 | 1.22 | 0.00 | 94 | 1020.4 |
| 20260901052333 | 14 | 166 | 0.0 | 6.4 | 0.00 | 1.22 | 0.00 | 94 | 1020.3 |
| 20260901051331 | 14 | 166 | 1.6 | 6.4 | 0.00 | 1.22 | 0.00 | 93 | 1020.3 |
| 20260901045339 | 14 | 165 | 1.6 | 11.3 | 0.00 | 1.22 | 0.00 | 92 | 1020.1 |
| 20260901044330 | 14 | 184 | 1.6 | 6.4 | 0.00 | 1.22 | 0.00 | 92 | 1020.1 |
| 20260901043331 | 14 | 185 | 1.6 | 4.8 | 0.00 | 1.22 | 0.00 | 91 | 1019.9 |
| 20260901042330 | 13 | 184 | 0.0 | 0.0 | 0.00 | 1.22 | 0.00 | 91 | 1019.6 |
| 20260901040330 | 13 | 184 | 0.0 | 0.0 | 0.00 | 1.32 | 0.00 | 91 | 1019.4 |
| 20260901035330 | 13 | 184 | 0.0 | 0.0 | 0.00 | 1.32 | 0.00 | 91 | 1019.3 |
| 20260901034331 | 13 | 184 | 0.0 | 0.0 | 0.00 | 1.32 | 0.00 | 91 | 1019.3 |
| 20260901033331 | 13 | 184 | 0.0 | 0.0 | 0.00 | 1.35 | 0.00 | 91 | 1019.3 |
| 20260901032332 | 13 | 184 | 0.0 | 0.0 | 0.00 | 1.37 | 0.00 | 91 | 1019.4 |
| 20260901030332 | 13 | 184 | 0.0 | 0.0 | 0.00 | 1.45 | 0.00 | 91 | 1019.3 |
| 20260901025335 | 13 | 184 | 0.0 | 0.0 | 0.00 | 1.45 | 0.00 | 92 | 1019.2 |
| 20260901024330 | 13 | 184 | 0.0 | 0.0 | 0.00 | 1.45 | 0.00 | 92 | 1019.1 |
| 20260901023333 | 12 | 184 | 0.0 | 0.0 | 0.00 | 1.45 | 0.00 | 92 | 1019.2 |
| 20260901022330 | 12 | 184 | 0.0 | 0.0 | 0.00 | 1.47 | 0.00 | 92 | 1019.2 |
| 20260901021330 | 12 | 184 | 0.0 | 0.0 | 0.00 | 1.47 | 0.00 | 92 | 1019.1 |
| 20260901020334 | 12 | 184 | 0.0 | 0.0 | 0.00 | 1.47 | 0.00 | 92 | 1019.2 |
| 20260901015331 | 12 | 184 | 0.0 | 0.0 | 0.00 | 1.50 | 0.00 | 92 | 1019.2 |
| 20260901011331 | 12 | 184 | 0.0 | 0.0 | 0.00 | 1.55 | 0.00 | 92 | 1019.0 |
| 20260901010332 | 12 | 184 | 0.0 | 0.0 | 0.00 | 1.55 | 0.00 | 92 | 1019.0 |
| 20260901004324 | 12 | 184 | 0.0 | 0.0 | 0.00 | 1.60 | 0.00 | 93 | 1019.0 |
| 20260901002324 | 12 | 186 | 0.0 | 4.8 | 0.00 | 1.63 | 0.00 | 93 | 1018.9 |
| 20260901001320 | 12 | 186 | 0.0 | 4.8 | 0.00 | 1.63 | 0.00 | 93 | 1018.9 |
| 20260901000322 | 12 | 221 | 0.0 | 0.0 | 0.00 | 1.63 | 0.00 | 93 | 1018.8 |
| 20260831235322 | 12 | 221 | 0.0 | 3.2 | 0.00 | 1.63 | 0.00 | 94 | 1018.9 |
| 20260831234323 | 12 | 225 | 0.0 | 0.0 | 0.00 | 1.63 | 0.00 | 94 | 1018.9 |
| 20260831233318 | 12 | 225 | 0.0 | 3.2 | 0.00 | 1.63 | 0.00 | 94 | 1018.9 |
| 20260831232308 | 12 | 236 | 0.0 | 0.0 | 0.00 | 1.63 | 0.00 | 94 | 1018.9 |
| 20260831231309 | 13 | 236 | 0.0 | 0.0 | 0.00 | 1.63 | 0.00 | 94 | 1018.8 |
| 20260831230306 | 13 | 236 | 0.0 | 0.0 | 0.00 | 1.63 | 0.00 | 93 | 1018.9 |
| 20260831225309 | 13 | 236 | 0.0 | 0.0 | 0.00 | 1.63 | 0.00 | 93 | 1018.8 |
| 20260831224306 | 14 | 236 | 0.0 | 0.0 | 0.00 | 1.63 | 0.00 | 93 | 1018.7 |
| 20260831223305 | 14 | 236 | 0.0 | 6.4 | 0.00 | 1.63 | 0.00 | 93 | 1018.7 |
| 20260831222306 | 14 | 236 | 0.0 | 0.0 | 0.00 | 1.63 | 0.00 | 92 | 1018.6 |
| 20260831220309 | 15 | 236 | 0.0 | 4.8 | 0.00 | 1.63 | 0.00 | 92 | 1018.6 |
| 20260831215307 | 15 | 236 | 0.0 | 6.4 | 0.00 | 1.63 | 1.63 | 92 | 1018.6 |
| 20260831212306 | 15 | 238 | 0.0 | 0.0 | 0.00 | 1.63 | 1.63 | 92 | 1018.5 |
| 20260831210312 | 15 | 238 | 0.0 | 6.4 | 0.00 | 1.63 | 1.63 | 92 | 1018.4 |
| 20260831204304 | 15 | 238 | 0.0 | 0.0 | 0.00 | 1.63 | 1.63 | 91 | 1018.0 |
| 20260831203305 | 15 | 238 | 0.0 | 4.8 | 0.00 | 1.63 | 1.63 | 91 | 1017.9 |
| 20260831202306 | 15 | 238 | 0.0 | 12.9 | 0.00 | 1.63 | 1.63 | 90 | 1017.7 |
| 20260831200306 | 15 | 232 | 3.2 | 11.3 | 0.00 | 1.63 | 1.63 | 91 | 1017.5 |
| 20260831195306 | 15 | 229 | 1.6 | 12.9 | 0.00 | 1.63 | 1.63 | 91 | 1017.4 |
| 20260831194325 | 15 | 217 | 0.0 | 6.4 | 0.00 | 1.63 | 1.63 | 91 | 1017.2 |
| 20260831192305 | 16 | 244 | 4.8 | 12.9 | 0.00 | 1.63 | 1.63 | 91 | 1016.9 |
| 20260831191318 | 15 | 245 | 4.8 | 11.3 | 0.00 | 1.63 | 1.63 | 92 | 1016.8 |
| 20260831184306 | 16 | 250 | 3.2 | 11.3 | 0.00 | 1.63 | 1.63 | 92 | 1016.5 |
| 20260831183308 | 15 | 219 | 4.8 | 12.9 | 0.00 | 1.63 | 1.63 | 93 | 1016.2 |
| 20260831182310 | 15 | 196 | 0.0 | 0.0 | 0.00 | 1.63 | 1.63 | 93 | 1016.2 |
| 20260831181307 | 15 | 196 | 1.6 | 3.2 | 0.00 | 1.63 | 1.63 | 93 | 1015.9 |
| 20260831180304 | 15 | 196 | 0.0 | 6.4 | 0.00 | 1.63 | 1.63 | 93 | 1015.8 |
| 20260831175309 | 15 | 196 | 0.0 | 4.8 | 0.00 | 1.63 | 1.63 | 93 | 1015.6 |
| 20260831173305 | 15 | 174 | 1.6 | 6.4 | 0.00 | 1.63 | 1.63 | 93 | 1015.5 |
| 20260831172306 | 15 | 171 | 1.6 | 6.4 | 0.00 | 1.63 | 1.63 | 93 | 1015.4 |
| 20260831171318 | 15 | 238 | 0.0 | 6.4 | 0.00 | 1.63 | 1.63 | 93 | 1015.3 |
| 20260831170306 | 15 | 204 | 1.6 | 6.4 | 0.15 | 1.63 | 1.63 | 93 | 1015.4 |
| 20260831165305 | 15 | 205 | 0.0 | 3.2 | 1.14 | 0.99 | 1.63 | 93 | 1015.1 |
| 20260831164305 | 15 | 205 | 0.0 | 4.8 | 1.17 | 0.99 | 1.63 | 93 | 1015.0 |
| 20260831163305 | 15 | 207 | 0.0 | 3.2 | 1.17 | 0.99 | 1.63 | 93 | 1014.9 |
| 20260831162305 | 15 | 207 | 0.0 | 6.4 | 1.19 | 0.99 | 1.63 | 93 | 1014.8 |
| 20260831161300 | 13 | 239 | 1.6 | 20.9 | 1.19 | 0.99 | 1.63 | 93 | 1015.0 |
| 20260831160302 | 14 | 294 | 19.3 | 32.2 | 1.02 | 0.99 | 1.37 | 84 | 1015.0 |
| 20260831154301 | 16 | 259 | 9.7 | 17.7 | 0.03 | 0.43 | 0.43 | 89 | 1014.5 |
| 20260831153259 | 17 | 198 | 3.2 | 11.3 | 0.03 | 0.43 | 0.43 | 89 | 1014.0 |
| 20260831152302 | 17 | 289 | 0.0 | 4.8 | 0.03 | 0.43 | 0.43 | 85 | 1013.5 |
| 20260831151300 | 17 | 289 | 0.0 | 1.6 | 0.03 | 0.43 | 0.43 | 83 | 1013.7 |
| 20260831150301 | 17 | 289 | 1.6 | 9.7 | 0.03 | 0.43 | 0.43 | 81 | 1013.9 |
| 20260831145259 | 17 | 261 | 0.0 | 6.4 | 0.03 | 0.41 | 0.43 | 78 | 1013.9 |
| 20260831143303 | 16 | 297 | 9.7 | 22.5 | 0.03 | 0.41 | 0.43 | 83 | 1014.0 |
| 20260831142300 | 19 | 288 | 19.3 | 40.2 | 0.00 | 0.41 | 0.41 | 67 | 1014.0 |
| 20260831141259 | 21 | 212 | 0.0 | 14.5 | 0.00 | 0.41 | 0.41 | 66 | 1013.3 |
| 20260831140257 | 21 | 163 | 8.0 | 24.1 | 0.00 | 0.41 | 0.41 | 65 | 1013.0 |
| 20260831135257 | 22 | 229 | 14.5 | 35.4 | 0.00 | 0.41 | 0.41 | 62 | 1012.9 |
| 20260831134258 | 22 | 159 | 6.4 | 19.3 | 0.00 | 0.41 | 0.41 | 64 | 1013.1 |
| 20260831133300 | 22 | 174 | 8.0 | 17.7 | 0.00 | 0.41 | 0.41 | 64 | 1013.2 |
| 20260831132258 | 21 | 236 | 3.2 | 20.9 | 0.00 | 0.41 | 0.41 | 65 | 1013.4 |
| 20260831130258 | 21 | 144 | 6.4 | 22.5 | 0.00 | 0.41 | 0.41 | 66 | 1013.6 |
| 20260831125255 | 20 | 236 | 6.4 | 19.3 | 0.00 | 0.41 | 0.41 | 68 | 1013.7 |
| 20260831122253 | 20 | 211 | 8.0 | 24.1 | 0.00 | 0.41 | 0.41 | 68 | 1013.8 |
| 20260831121254 | 20 | 250 | 8.0 | 19.3 | 0.00 | 0.41 | 0.41 | 70 | 1013.8 |
| 20260831115247 | 20 | 244 | 9.7 | 27.4 | 0.00 | 0.41 | 0.41 | 63 | 1013.6 |
| 20260831114244 | 20 | 160 | 8.0 | 19.3 | 0.00 | 0.41 | 0.41 | 72 | 1013.8 |
| 20260831113248 | 20 | 236 | 4.8 | 14.5 | 0.00 | 0.41 | 0.41 | 73 | 1013.8 |
| 20260831112244 | 21 | 256 | 4.8 | 19.3 | 0.00 | 0.41 | 0.41 | 71 | 1013.9 |
| 20260831111243 | 20 | 171 | 4.8 | 22.5 | 0.00 | 0.41 | 0.41 | 73 | 1013.9 |
| 20260831110247 | 20 | 229 | 4.8 | 20.9 | 0.00 | 0.41 | 0.41 | 77 | 1013.9 |
| 20260831105240 | 19 | 252 | 3.2 | 17.7 | 0.00 | 0.41 | 0.41 | 78 | 1014.0 |
| 20260831104242 | 20 | 156 | 11.3 | 22.5 | 0.00 | 0.41 | 0.41 | 74 | 1014.0 |
| 20260831103241 | 20 | 215 | 4.8 | 24.1 | 0.00 | 0.41 | 0.41 | 71 | 1013.9 |
| 20260831102240 | 21 | 148 | 4.8 | 16.1 | 0.00 | 0.41 | 0.41 | 66 | 1013.8 |
| 20260831101235 | 21 | 306 | 3.2 | 16.1 | 0.00 | 0.41 | 0.41 | 73 | 1013.7 |
| 20260831100236 | 20 | 260 | 4.8 | 16.1 | 0.00 | 0.41 | 0.41 | 73 | 1013.8 |
| 20260831095236 | 20 | 227 | 6.4 | 24.1 | 0.00 | 0.41 | 0.41 | 74 | 1013.8 |
| 20260831094231 | 20 | 259 | 12.9 | 24.1 | 0.00 | 0.41 | 0.41 | 76 | 1014.0 |
| 20260831093232 | 20 | 190 | 6.4 | 25.7 | 0.00 | 0.41 | 0.41 | 78 | 1013.8 |
| 20260831092237 | 19 | 256 | 6.4 | 17.7 | 0.00 | 0.41 | 0.41 | 80 | 1013.9 |
| 20260831084233 | 18 | 240 | 4.8 | 22.5 | 0.00 | 0.41 | 0.41 | 84 | 1013.9 |
| 20260831083233 | 18 | 213 | 4.8 | 19.3 | 0.00 | 0.41 | 0.41 | 86 | 1013.9 |
| 20260831082234 | 18 | 155 | 0.0 | 14.5 | 0.00 | 0.41 | 0.41 | 88 | 1013.8 |
| 20260831081230 | 18 | 254 | 1.6 | 12.9 | 0.00 | 0.41 | 0.41 | 88 | 1013.8 |
| 20260831080229 | 18 | 234 | 3.2 | 11.3 | 0.00 | 0.41 | 0.41 | 88 | 1013.8 |
| 20260831075231 | 18 | 252 | 1.6 | 12.9 | 0.00 | 0.41 | 0.41 | 90 | 1013.9 |
| 20260831071238 | 17 | 209 | 3.2 | 12.9 | 0.00 | 0.41 | 0.41 | 92 | 1013.9 |
| 20260831070231 | 17 | 160 | 1.6 | 9.7 | 0.00 | 0.41 | 0.41 | 93 | 1013.8 |
| 20260831065231 | 17 | 169 | 0.0 | 6.4 | 0.00 | 0.41 | 0.41 | 93 | 1013.7 |
| 20260831063230 | 16 | 167 | 1.6 | 6.4 | 0.00 | 0.41 | 0.41 | 92 | 1013.6 |
| 20260831062230 | 16 | 168 | 0.0 | 8.0 | 0.00 | 0.41 | 0.41 | 92 | 1013.6 |
| 20260831061231 | 16 | 194 | 1.6 | 4.8 | 0.00 | 0.43 | 0.41 | 91 | 1013.6 |
| 20260831060230 | 16 | 196 | 0.0 | 4.8 | 0.00 | 0.43 | 0.41 | 92 | 1013.4 |
| 20260831055231 | 16 | 194 | 0.0 | 3.2 | 0.00 | 0.43 | 0.41 | 92 | 1013.4 |